Home > Weather > Zürich > Past weeks

Flag for Switzerland Weather for the Past 2 Weeks in Zürich, Zurich, Switzerland

Now
37 °F

Chilly.


Feels Like: 35 °F
Forecast: 32 / 43 °F
Wind: 3 mph from South

Location: Zuerich-Fluntern

Current Time: Feb 14, 2016 at 8:21:27 PM

Latest Report: Feb 14, 2016 at 7:00 PM


Visibility: N/A

Pressure: 29.44 "Hg

Humidity: 95%

Dew point: 36 °F

Location of ZürichLocation

Historic Weather in Zürich — Graph

°F

Zürich Temperature Yesterday

Maximum temperature yesterday: 45 °F (at 9:00 PM)
Minimum temperature yesterday: 37 °F (at 9:00 AM)
Average temperature yesterday: 41 °F

High & Low Weather Summary for the Past Weeks

 TemperatureHumidityPressure
High56 °F (Feb 1, 1:00 PM)97% (Jan 31, 11:00 AM)30.51 "Hg (Jan 31, 11:00 AM)
Low32 °F (Feb 10, 8:00 AM)44% (Feb 11, 3:00 PM)29.18 "Hg (Feb 14, 8:00 AM)
Average41 °F79%29.91 "Hg
* Reported Jan 30 7:00 PM — Feb 14 7:00 PM, Zürich, Weather by CustomWeather, © 2016

Note: Actual official high and low records may vary slightly from our data, if they occured in-between our weather recording intervals... More about our weather records

Advertising

Zürich Weather History for the Previous 24 Hours

 ConditionsComfort  
Time TempWeatherWind HumidityBarometerVisibility
7:00 PM
Sun, Feb 14
37 °FChilly.3 mph95%29.44 "HgN/A
6:00 PM37 °FChilly.5 mph94%29.41 "HgN/A
5:00 PM37 °FChilly.6 mph93%29.38 "HgN/A
4:00 PM36 °FChilly.3 mph95%29.38 "HgN/A
3:00 PM35 °FChilly.6 mph94%29.35 "HgN/A
2:00 PM35 °FChilly.6 mph94%29.32 "HgN/A
1:00 PM36 °FChilly.7 mph93%29.29 "HgN/A
12:00 PM39 °FChilly.6 mph91%29.23 "HgN/A
11:00 AM43 °FQuite cool.5 mph78%29.18 "HgN/A
10:00 AM42 °FQuite cool.1 mph74%29.18 "HgN/A
9:00 AM41 °FQuite cool.2 mph81%29.18 "HgN/A
8:00 AM41 °FQuite cool.1 mph83%29.18 "HgN/A
7:00 AM41 °FQuite cool.2 mph76%29.21 "HgN/A
6:00 AM41 °FQuite cool.2 mph78%29.21 "HgN/A
9:00 PM
Sat, Feb 13
45 °FCool.18 mph68%29.21 "HgN/A
8:00 PM44 °FQuite cool.17 mph74%29.23 "HgN/A
Weather by CustomWeather, © 2016

See weather overviewHow to use our weather pages